COSMOS 2251 DEB

Satellite information

Favourite Embed

Satellite Type and Status

DEBRISIN ORBIT

Key statistics

Satellite COSMOS 2251 DEB at a glance.

Uptime

11771

Days in orbit

Revolutions

≈ 13.7

Per day

Orbit

LEO

Low Earth Orbit

Inclination

74.0

Latest

Satellite identification and parameters

Extended collection of information and parameters for COSMOS 2251 DEB.

Object identification

Identified? True

Debris? True

Object name: COSMOS 2251 DEB

International designator: 1993-036AMC

Object number (NORAD): 35585

Object ID (CCSDS): 35585

Country: COMMONWEALTH OF INDEPENDENT STATES (CIS)

Current information (Y/N): Y

RCS size: SMALL

Orbital parameters

Period: 104.742 minutes

Inclination: 73.9725 deg

SMA: 7360.516 km

Apoapsis: 1209.412 km

Periapsis: 755.349 km

RAAN: 154.5417 deg

Eccentricy: 0.03084451

Argument of periapsis: 87.1906 deg

Mean anomaly: 62.706 deg

Mean motion: 13.74802764 rev/day

Mean motion (dot): 0.00002814 rev/day2

B* drag term: 0.0021081699 1/REarth

Two-line elements (TLE)

Creation date: Sept. 4, 2025, 10:13 a.m.

Reference frame: TEME

Reference center: EARTH

Epoch: Sept. 4, 2025, 4:42 a.m. UTC

TLE line 0: 0 COSMOS 2251 DEB

TLE line 1: 1 35585U 93036AMC 25247.19627653 .00002814 00000-0 21082-2 0 9996

TLE line 2: 2 35585 73.9725 154.5417 0308445 87.1906 62.7060 13.74802764626954

Live tracking on map

Real-time ground track for satellite COSMOS 2251 DEB.

In-orbit conjunctions

A list of the most updated potential collisions computed for object COSMOS 2251 DEB.

Target Orbit TCA Probability of collision Miss distance Type
FENGYUN 1C DEB SSO 2025-05-31 00:20:35 0.0001318901 219.0 (m) DEBRIS
CZ-6A DEB LEO 2025-02-02 10:02:25 0.0005560582 373.0 (m) DEBRIS
DELTA 1 DEB SSO 2024-06-06 21:21:32 0.000148535 138.0 (m) DEBRIS

Associated space launch

Military communications satellite. Destroyed in a collision with Iridium 33.

COSMOS 2251 DEB was lifted into orbit during the mission ‘Kosmos-3M | Strela-2M 51’, on board a Kosmos-3M space rocket.

The launch took place on June 16, 1993, 4:17 a.m. from 132/1 (132L).

For more information about the launch, click the button.

Launch to space Kosmos-3M | Strela-2M 51
Kosmos-3M | Strela-2M 51

Agency: N/A

Status: Launch Successful

Launch date: June 16, 1993, 4:17 a.m. UTC

Rocket: Kosmos-3M

Launch pad: 132/1 (132L)

Location: Plesetsk Cosmodrome, Russian Federation

...

Latest news about this satellite

There are no fresh news available about this satellite. Check back as we update our databases every day.


Newsletter sign-up

Weekly statistics, charts and insights to help you stay on top of the space industry.